When you browse on this site, cookies collect data to enhance your experience and personalize the content and advertising you see.
Visit our Privacy Policy to learn more. By continuing to use the site, you agree to this use of cookies and data.

Stündliche Wetter Vanadzor

Heute, 9 August, Sonntag

Zeit Temperatur Niederschläge Wind Luftdruck Luftfeuchtigkeit
00:00 +15°C° 0 mm 1 m/S 633 mmHg 81%
01:00 +14°C° 0 mm 1 m/S 633 mmHg 81%
02:00 +14°C° 0 mm 1 m/S 632 mmHg 82%
03:00 +14°C° 0 mm 1 m/S 632 mmHg 83%
04:00 +14°C° 0 mm 1 m/S 632 mmHg 83%
05:00 +15°C° 0 mm 1 m/S 633 mmHg 83%
06:00 +15°C° 0 mm 1 m/S 633 mmHg 82%
07:00 +18°C° 0 mm 1 m/S 633 mmHg 76%
08:00 +20°C° 0 mm 1 m/S 634 mmHg 69%
09:00 +22°C° 0 mm 1 m/S 634 mmHg 63%
10:00 +23°C° 0 mm 1 m/S 634 mmHg 60%
11:00 +24°C° 0 mm 2 m/S 634 mmHg 57%
12:00 +25°C° 0 mm 2 m/S 634 mmHg 54%
13:00 +25°C° 0.2 mm 2 m/S 634 mmHg 55%
14:00 +25°C° 0.2 mm 2 m/S 634 mmHg 55%
15:00 +25°C° 0.2 mm 2 m/S 633 mmHg 55%
16:00 +25°C° 0.2 mm 2 m/S 633 mmHg 60%
17:00 +24°C° 0.2 mm 1 m/S 633 mmHg 65%
18:00 +23°C° 0.2 mm 1 m/S 632 mmHg 70%
19:00 +21°C° 0 mm 1 m/S 632 mmHg 73%
20:00 +20°C° 0 mm 1 m/S 632 mmHg 76%
21:00 +18°C° 0 mm 1 m/S 632 mmHg 79%
22:00 +18°C° 0 mm 1 m/S 632 mmHg 78%
23:00 +16°C° 0 mm 1 m/S 632 mmHg 77%

Morgen, 10 August, Montag

Zeit Temperatur Niederschläge Wind Luftdruck Luftfeuchtigkeit
00:00 +16°C° 0 mm 1 m/S 632 mmHg 76%
01:00 +16°C° 0 mm 1 m/S 632 mmHg 76%
02:00 +15°C° 0 mm 1 m/S 632 mmHg 76%
03:00 +15°C° 0 mm 1 m/S 632 mmHg 76%
04:00 +15°C° 0 mm 1 m/S 632 mmHg 77%
05:00 +16°C° 0 mm 1 m/S 632 mmHg 78%
06:00 +16°C° 0 mm 1 m/S 632 mmHg 79%
07:00 +19°C° 0 mm 1 m/S 633 mmHg 74%
08:00 +21°C° 0 mm 1 m/S 634 mmHg 69%
09:00 +21°C° 0 mm 2 m/S 634 mmHg 63%
10:00 +24°C° 0 mm 2 m/S 634 mmHg 61%
11:00 +25°C° 0 mm 2 m/S 634 mmHg 59%
12:00 +26°C° 0 mm 2 m/S 634 mmHg 57%
13:00 +26°C° 0.1 mm 3 m/S 634 mmHg 58%
14:00 +26°C° 0.1 mm 3 m/S 634 mmHg 58%
15:00 +26°C° 0.1 mm 3 m/S 634 mmHg 59%
16:00 +25°C° 0.1 mm 3 m/S 633 mmHg 63%
17:00 +24°C° 0.1 mm 2 m/S 633 mmHg 68%
18:00 +23°C° 0.1 mm 2 m/S 633 mmHg 73%
19:00 +20°C° 0 mm 2 m/S 633 mmHg 76%
20:00 +18°C° 0 mm 2 m/S 633 mmHg 79%
21:00 +18°C° 0 mm 1 m/S 633 mmHg 83%
22:00 +16°C° 0 mm 1 m/S 633 mmHg 82%
23:00 +16°C° 0 mm 1 m/S 633 mmHg 82%

übermorgen, 11 August, Dienstag

Zeit Temperatur Niederschläge Wind Luftdruck Luftfeuchtigkeit
00:00 +16°C° 0 mm 1 m/S 633 mmHg 82%
01:00 +15°C° 0 mm 1 m/S 633 mmHg 83%
02:00 +15°C° 0 mm 1 m/S 633 mmHg 85%
03:00 +14°C° 0 mm 1 m/S 633 mmHg 86%
04:00 +14°C° 0 mm 1 m/S 633 mmHg 88%
05:00 +14°C° 0 mm 1 m/S 633 mmHg 89%
06:00 +14°C° 0 mm 1 m/S 633 mmHg 90%
07:00 +16°C° 0 mm 1 m/S 633 mmHg 84%
08:00 +18°C° 0 mm 2 m/S 634 mmHg 78%
09:00 +20°C° 0 mm 2 m/S 634 mmHg 71%
10:00 +21°C° 0 mm 2 m/S 634 mmHg 69%
11:00 +23°C° 0 mm 2 m/S 634 mmHg 67%
12:00 +24°C° 0 mm 2 m/S 634 mmHg 65%
13:00 +24°C° 0.1 mm 2 m/S 634 mmHg 64%
14:00 +24°C° 0.1 mm 2 m/S 634 mmHg 64%
15:00 +25°C° 0.1 mm 2 m/S 633 mmHg 63%
16:00 +24°C° 0.3 mm 2 m/S 633 mmHg 68%
17:00 +23°C° 0.3 mm 2 m/S 633 mmHg 72%
18:00 +21°C° 0.3 mm 3 m/S 633 mmHg 76%
19:00 +20°C° 0.1 mm 2 m/S 633 mmHg 80%
20:00 +18°C° 0.1 mm 2 m/S 633 mmHg 83%
21:00 +16°C° 0.1 mm 1 m/S 633 mmHg 87%
22:00 +16°C° 0 mm 1 m/S 633 mmHg 87%
23:00 +16°C° 0 mm 1 m/S 633 mmHg 88%

12 August, Mittwoch

Zeit Temperatur Niederschläge Wind Luftdruck Luftfeuchtigkeit
00:00 +15°C° 0 mm 1 m/S 633 mmHg 88%
01:00 +15°C° 0 mm 1 m/S 633 mmHg 88%
02:00 +15°C° 0 mm 1 m/S 632 mmHg 89%
03:00 +14°C° 0 mm 1 m/S 632 mmHg 90%
04:00 +14°C° 0 mm 1 m/S 632 mmHg 90%
05:00 +15°C° 0 mm 1 m/S 633 mmHg 91%
06:00 +15°C° 0 mm 1 m/S 633 mmHg 91%
07:00 +16°C° 0 mm 1 m/S 633 mmHg 86%
08:00 +18°C° 0 mm 2 m/S 634 mmHg 81%
09:00 +20°C° 0 mm 2 m/S 634 mmHg 76%
10:00 +20°C° 0 mm 2 m/S 634 mmHg 74%
11:00 +21°C° 0 mm 2 m/S 634 mmHg 73%
12:00 +21°C° 0 mm 2 m/S 634 mmHg 71%
13:00 +23°C° 0.1 mm 2 m/S 634 mmHg 70%
14:00 +23°C° 0.1 mm 2 m/S 634 mmHg 69%
15:00 +24°C° 0.1 mm 2 m/S 634 mmHg 67%
16:00 +23°C° 0.1 mm 2 m/S 634 mmHg 70%
17:00 +23°C° 0.1 mm 2 m/S 634 mmHg 73%
18:00 +21°C° 0.1 mm 2 m/S 633 mmHg 76%
19:00 +21°C° 0 mm 1 m/S 634 mmHg 78%
20:00 +20°C° 0 mm 1 m/S 634 mmHg 81%
21:00 +18°C° 0 mm 1 m/S 634 mmHg 83%
22:00 +18°C° 0 mm 1 m/S 634 mmHg 83%
23:00 +18°C° 0 mm 1 m/S 634 mmHg 82%

13 August, Donnerstag

Zeit Temperatur Niederschläge Wind Luftdruck Luftfeuchtigkeit
00:00 +16°C° 0 mm 1 m/S 634 mmHg 82%
01:00 +16°C° 0 mm 1 m/S 634 mmHg 82%
02:00 +16°C° 0 mm 1 m/S 633 mmHg 82%
03:00 +16°C° 0 mm 1 m/S 633 mmHg 82%
04:00 +16°C° 0 mm 1 m/S 633 mmHg 85%
05:00 +16°C° 0 mm 1 m/S 633 mmHg 88%
06:00 +15°C° 0 mm 1 m/S 633 mmHg 90%
07:00 +18°C° 0 mm 1 m/S 634 mmHg 86%
08:00 +19°C° 0 mm 1 m/S 634 mmHg 82%
09:00 +20°C° 0 mm 2 m/S 634 mmHg 78%
10:00 +21°C° 0.3 mm 2 m/S 634 mmHg 76%
11:00 +21°C° 0.3 mm 2 m/S 634 mmHg 73%
12:00 +23°C° 0.3 mm 2 m/S 634 mmHg 71%
13:00 +23°C° 0.4 mm 2 m/S 634 mmHg 71%
14:00 +24°C° 0.4 mm 2 m/S 633 mmHg 70%
15:00 +24°C° 0.4 mm 2 m/S 633 mmHg 69%
16:00 +23°C° 0.3 mm 2 m/S 633 mmHg 72%
17:00 +23°C° 0.3 mm 2 m/S 633 mmHg 75%
18:00 +21°C° 0.3 mm 2 m/S 633 mmHg 77%
19:00 +20°C° 0.3 mm 2 m/S 633 mmHg 80%
20:00 +20°C° 0.3 mm 1 m/S 634 mmHg 83%
21:00 +19°C° 0.3 mm 1 m/S 634 mmHg 85%
22:00 +18°C° 0.3 mm 1 m/S 634 mmHg 87%
23:00 +18°C° 0.3 mm 1 m/S 634 mmHg 89%

14 August, Freitag

Zeit Temperatur Niederschläge Wind Luftdruck Luftfeuchtigkeit
00:00 +16°C° 0.3 mm 1 m/S 634 mmHg 90%
01:00 +16°C° 0 mm 1 m/S 633 mmHg 91%
02:00 +15°C° 0 mm 1 m/S 633 mmHg 92%
03:00 +15°C° 0 mm 1 m/S 633 mmHg 92%
04:00 +15°C° 0 mm 1 m/S 633 mmHg 92%
05:00 +15°C° 0 mm 1 m/S 633 mmHg 92%
06:00 +15°C° 0 mm 1 m/S 633 mmHg 92%
07:00 +18°C° 0 mm 1 m/S 634 mmHg 83%
08:00 +20°C° 0 mm 1 m/S 634 mmHg 74%
09:00 +20°C° 0 mm 2 m/S 635 mmHg 65%
10:00 +21°C° 0.1 mm 2 m/S 635 mmHg 62%
11:00 +23°C° 0.1 mm 2 m/S 635 mmHg 59%
12:00 +24°C° 0.1 mm 2 m/S 635 mmHg 56%
13:00 +24°C° 0.2 mm 2 m/S 634 mmHg 55%
14:00 +25°C° 0.2 mm 2 m/S 634 mmHg 55%
15:00 +25°C° 0.2 mm 2 m/S 634 mmHg 55%
16:00 +24°C° 0 mm 2 m/S 634 mmHg 59%
17:00 +23°C° 0 mm 2 m/S 634 mmHg 62%
18:00 +23°C° 0 mm 2 m/S 633 mmHg 66%
19:00 +20°C° 0 mm 2 m/S 633 mmHg 70%
20:00 +19°C° 0 mm 1 m/S 633 mmHg 74%
21:00 +16°C° 0 mm 1 m/S 633 mmHg 78%
22:00 +16°C° 0 mm 1 m/S 633 mmHg 77%
23:00 +15°C° 0 mm 1 m/S 633 mmHg 77%
Mehr zeigen